Location: ????
(33.1659°N, 35.6604°E)
Time: 15:11:56
(UTC+00:00)

Resurs 01 Rocket - Pass Details

Date: 20 September 2019
Orbit: 635 x 643 km, 98.0° (Epoch: 14 October)

Event Time Altitude Azimuth Distance (km) Brightness Sun altitude
Exits shadow 18:15:28 17° 348° (NNW) 1,606 4.0 -32.8°
Drops below altitude 10° 18:16:32 10° 348° (NNW) 2,038 4.6 -33.0°
Sets 18:18:45 0° 349° (NNW) 2,953 5.5 -33.4°
